{"data":{"norad_id":67121,"epoch":"2026-05-24T23:42:55.740096Z","epoch_age_seconds":66149,"freshness":"FRESH","line1":"1 67121U 25299V   26144.98814514  .00016857  00000+0  62054-3 0  9997","line2":"2 67121  43.0044  98.2198 0001084 261.4637  98.6092 15.27589003 24788","mean_motion":15.27589003,"eccentricity":0.0001084,"inclination_deg":43.0044,"raan_deg":98.2198,"arg_perigee_deg":261.4637,"mean_anomaly_deg":98.6092,"bstar":0.00062054,"rev_number":2478,"period_min":94.266193143052,"perigee_km":482.27838830069,"apogee_km":483.7658876018,"semimajor_km":6861.1591379512,"source":"CELESTRAK","updated_at":"2026-05-25T13:38:21.476848Z"}}